GW4330 Weather Reports


time (UTC)temp
C
wind
direction
speed
KPH
gust
KPH
rain 1hr
cm
rain 24hr
cm
rain mn
cm
humidity
%
barometer
mb
20260505140316 22 76 1.6 1.6 0.00 0.00 0.00 69 1021.3
20260505130240 20 116 3.2 3.2 0.00 0.00 0.00 71 1021.1
20260505124731 20 59 1.6 1.6 0.00 0.00 0.00 73 1021.3
20260505124227 20 85 1.6 3.2 0.00 0.00 0.00 73 1021.3
20260505123722 19 129 3.2 4.8 0.00 0.00 0.00 73 1021.2
20260505123220 19 103 3.2 3.2 0.00 0.00 0.00 74 1021.2
20260505122716 18 97 1.6 3.2 0.00 0.00 0.00 76 1021.2
20260505122214 18 59 1.6 1.6 0.00 0.00 0.00 76 1021.3
20260505121710 18 80 3.2 3.2 0.00 0.00 0.00 76 1021.2
20260505121207 18 121 1.6 3.2 0.00 0.00 0.00 77 1021.1
20260505120703 17 72 1.6 3.2 0.00 0.00 0.00 80 1021.1
20260505120159 17 87 1.6 3.2 0.00 0.00 0.00 81 1021.0
20260505115652 17 90 1.6 3.2 0.00 0.00 0.00 81 1021.0
20260505115151 17 98 3.2 3.2 0.00 0.00 0.00 81 1021.2
20260505114648 17 126 1.6 1.6 0.00 0.00 0.00 82 1020.9
20260505114144 16 49 1.6 1.6 0.00 0.00 0.00 82 1020.9
20260505113640 16 83 3.2 3.2 0.00 0.00 0.00 82 1020.9
20260505113137 16 85 1.6 1.6 0.00 0.00 0.00 83 1020.9
20260505112634 16 114 1.6 1.6 0.00 0.00 0.00 83 1021.2
20260505112132 16 128 3.2 3.2 0.00 0.00 0.00 83 1020.9
20260505111631 16 105 3.2 3.2 0.00 0.00 0.00 84 1021.0
20260505111127 16 108 3.2 4.8 0.00 0.00 0.00 83 1021.0
20260505110623 16 96 4.8 6.4 0.00 0.00 0.00 84 1021.0
20260505110121 16 87 4.8 4.8 0.00 0.00 0.00 84 1020.8
20260505102056 16 88 0.0 1.6 0.00 0.00 0.00 84 1020.4
20260505101555 16 60 4.8 4.8 0.00 0.00 0.00 84 1020.3
20260505101051 16 75 0.0 1.6 0.00 0.00 0.00 84 1020.2
20260505100547 16 46 1.6 3.2 0.00 0.00 0.00 83 1020.0
20260505100044 16 97 1.6 3.2 0.00 0.00 0.00 84 1020.0
20260505095540 16 54 1.6 1.6 0.00 0.00 0.00 84 1020.1
20260505095037 16 46 3.2 6.4 0.00 0.00 0.00 83 1020.0
20260505094533 16 83 1.6 3.2 0.00 0.00 0.00 83 1020.0
20260505094030 16 76 3.2 3.2 0.00 0.00 0.00 83 1020.0
20260505093526 16 87 3.2 6.4 0.00 0.00 0.00 83 1019.8
20260505093024 16 87 4.8 6.4 0.00 0.00 0.00 82 1020.1
20260505092521 16 101 4.8 6.4 0.00 0.00 0.00 83 1019.8
20260505092019 16 107 3.2 3.2 0.00 0.00 0.00 83 1019.7
20260505091516 16 90 6.4 6.4 0.00 0.00 0.00 81 1019.7
20260505091014 16 106 6.4 6.4 0.00 0.00 0.00 81 1019.8
20260505090512 16 56 1.6 3.2 0.00 0.00 0.00 83 1019.7
20260505090009 16 63 3.2 4.8 0.00 0.00 0.00 82 1019.7
20260505085507 16 89 4.8 4.8 0.00 0.00 0.00 82 1019.7
20260505085005 16 85 4.8 4.8 0.00 0.00 0.00 81 1019.8
20260505084503 16 92 3.2 4.8 0.00 0.00 0.00 82 1019.6
20260505084001 16 88 3.2 3.2 0.00 0.00 0.00 82 1019.5
20260505083458 16 82 3.2 4.8 0.00 0.00 0.00 81 1019.5
20260505082954 16 70 1.6 4.8 0.00 0.00 0.00 82 1019.6
20260505082450 16 108 3.2 4.8 0.00 0.00 0.00 82 1019.6
20260505081947 16 78 3.2 6.4 0.00 0.00 0.00 81 1019.6
20260505081444 16 66 1.6 1.6 0.00 0.00 0.00 81 1019.4
20260505080940 16 97 0.0 1.6 0.00 0.00 0.00 81 1019.4
20260505080436 16 63 0.0 1.6 0.00 0.00 0.00 80 1019.2
20260505075932 16 110 3.2 4.8 0.00 0.00 0.00 80 1019.4
20260505075429 16 76 1.6 3.2 0.00 0.00 0.00 80 1019.4
20260505074926 16 104 0.0 1.6 0.00 0.00 0.00 79 1019.4
20260505074424 16 43 1.6 3.2 0.00 0.00 0.00 79 1019.1
20260505073920 16 80 0.0 1.6 0.00 0.00 0.00 79 1019.3
20260505073418 16 86 3.2 4.8 0.00 0.00 0.00 80 1019.3
20260505072915 16 76 4.8 4.8 0.00 0.00 0.00 78 1019.3
20260505072411 16 91 3.2 4.8 0.00 0.00 0.00 77 1019.2
20260505071908 17 63 3.2 6.4 0.00 0.00 0.00 78 1019.2
20260505071404 17 92 3.2 4.8 0.00 0.00 0.00 78 1019.1
20260505070902 17 95 4.8 4.8 0.00 0.00 0.00 78 1019.1
20260505070358 17 73 4.8 6.4 0.00 0.00 0.00 78 1019.1
20260505065853 17 70 4.8 6.4 0.00 0.00 0.00 77 1019.0
20260505065351 17 96 4.8 6.4 0.00 0.00 0.00 77 1019.2
20260505064848 17 101 3.2 4.8 0.00 0.00 0.00 77 1018.9
20260505064345 17 125 6.4 6.4 0.00 0.00 0.00 78 1019.0
20260505063843 17 103 4.8 4.8 0.00 0.00 0.00 77 1019.0
20260505063338 17 77 4.8 6.4 0.00 0.00 0.00 78 1019.0
20260505062835 17 104 6.4 6.4 0.00 0.00 0.00 77 1019.0
20260505062333 17 87 6.4 9.7 0.00 0.00 0.00 76 1019.2
20260505061829 17 91 6.4 6.4 0.00 0.00 0.00 77 1019.0
20260505061328 17 77 6.4 6.4 0.00 0.00 0.00 76 1019.0
20260505060825 17 103 3.2 3.2 0.00 0.00 0.00 76 1019.2
20260505060321 17 76 3.2 4.8 0.00 0.00 0.00 76 1019.4
20260505055817 17 118 6.4 6.4 0.00 0.00 0.00 74 1019.3
20260505055313 17 112 3.2 3.2 0.00 0.00 0.00 75 1019.2
20260505054811 17 99 6.4 6.4 0.00 0.00 0.00 75 1019.4
20260505054308 17 126 3.2 4.8 0.00 0.00 0.00 75 1019.5
20260505053806 17 79 4.8 4.8 0.00 0.00 0.00 75 1019.4
20260505053303 17 108 3.2 4.8 0.00 0.00 0.00 76 1019.4
20260505052800 17 85 3.2 4.8 0.00 0.00 0.00 75 1019.4
20260505052257 17 111 1.6 3.2 0.00 0.00 0.00 75 1019.4
20260505051754 17 90 1.6 1.6 0.00 0.00 0.00 76 1019.5
20260505051252 17 104 3.2 3.2 0.00 0.00 0.00 76 1019.5
20260505050749 18 104 3.2 3.2 0.00 0.00 0.00 77 1019.6
20260505050248 17 72 3.2 4.8 0.00 0.00 0.00 75 1019.5
20260505041717 18 128 3.2 3.2 0.00 0.00 0.00 74 1019.6
20260505041215 18 109 3.2 4.8 0.00 0.00 0.00 74 1019.4
20260505040712 18 123 3.2 4.8 0.00 0.00 0.00 73 1019.6
20260505040209 18 110 1.6 3.2 0.00 0.00 0.00 73 1019.6
20260505035706 18 90 3.2 3.2 0.00 0.00 0.00 73 1019.6
20260505035202 18 51 1.6 3.2 0.00 0.00 0.00 74 1019.7
20260505034658 18 150 3.2 4.8 0.00 0.00 0.00 73 1019.5
20260505034156 18 103 3.2 4.8 0.00 0.00 0.00 73 1019.6
20260505033651 18 118 3.2 4.8 0.00 0.00 0.00 73 1019.4
20260505033150 18 58 4.8 4.8 0.00 0.00 0.00 73 1019.4
20260505032648 18 92 3.2 3.2 0.00 0.00 0.00 74 1019.4
20260505032144 18 99 1.6 3.2 0.00 0.00 0.00 73 1019.4
20260505031642 18 89 3.2 4.8 0.00 0.00 0.00 73 1019.4
20260505031138 18 134 3.2 4.8 0.00 0.00 0.00 74 1019.4
20260505030635 18 5 3.2 3.2 0.00 0.00 0.00 73 1019.3
20260505030131 18 87 4.8 6.4 0.00 0.00 0.00 74 1019.3
20260505025627 18 131 3.2 4.8 0.00 0.00 0.00 74 1019.4
20260505025126 18 98 3.2 4.8 0.00 0.00 0.00 73 1019.5
20260505024623 18 82 8.0 11.3 0.00 0.00 0.00 73 1019.4
20260505024120 18 98 9.7 11.3 0.00 0.00 0.00 73 1019.4
20260505023617 18 103 6.4 9.7 0.00 0.00 0.00 72 1019.2
20260505023115 18 68 6.4 6.4 0.00 0.00 0.00 72 1019.3
20260505022612 18 105 6.4 6.4 0.00 0.00 0.00 74 1019.2
20260505022108 18 83 8.0 9.7 0.00 0.00 0.00 74 1019.6
20260505021605 18 72 6.4 9.7 0.00 0.00 0.00 73 1019.4
20260505021102 18 99 8.0 11.3 0.00 0.00 0.00 73 1019.4
20260505020602 18 70 3.2 6.4 0.00 0.00 0.00 73 1019.3
20260505020059 18 90 1.6 3.2 0.00 0.00 0.00 72 1019.3
20260505015556 19 72 1.6 3.2 0.00 0.00 0.00 73 1019.5
20260505015053 19 92 4.8 9.7 0.00 0.00 0.00 72 1019.4
20260505014549 19 71 3.2 6.4 0.00 0.00 0.00 72 1019.3
20260505014046 19 73 6.4 11.3 0.00 0.00 0.00 71 1019.2
20260505013543 19 76 1.6 3.2 0.00 0.00 0.00 74 1019.2
20260505013041 19 62 3.2 4.8 0.00 0.00 0.00 71 1019.0
20260505012539 19 73 6.4 11.3 0.00 0.00 0.00 72 1019.0
20260505012036 19 131 3.2 4.8 0.00 0.00 0.00 72 1018.9
20260505011537 19 108 8.0 11.3 0.00 0.00 0.00 71 1019.0
20260505011034 19 95 8.0 11.3 0.00 0.00 0.00 71 1018.8
20260505010529 20 84 9.7 12.9 0.00 0.00 0.00 70 1018.7
20260505010026 20 98 9.7 11.3 0.00 0.00 0.00 70 1018.4
20260505005522 20 87 8.0 9.7 0.00 0.00 0.00 70 1018.5
20260505005020 20 79 6.4 9.7 0.00 0.00 0.00 71 1018.5
20260505004517 20 89 8.0 9.7 0.00 0.00 0.00 70 1018.3
20260505004014 20 69 3.2 4.8 0.00 0.00 0.00 71 1018.4
20260505003511 20 75 4.8 6.4 0.00 0.00 0.00 71 1018.2
20260505003008 20 98 6.4 11.3 0.00 0.00 0.00 71 1018.2
20260505002503 20 70 6.4 9.7 0.00 0.00 0.00 71 1018.0
20260505002002 20 64 3.2 4.8 0.00 0.00 0.00 72 1018.3
20260505001459 20 94 3.2 9.7 0.00 0.00 0.00 71 1018.2
20260505000956 20 93 4.8 6.4 0.00 0.00 0.00 69 1018.0
20260505000454 20 68 1.6 4.8 0.00 0.00 0.00 71 1018.2
20260504235950 20 51 1.6 3.2 0.00 0.00 0.00 70 1018.0
20260504235448 20 74 1.6 3.2 0.00 0.00 0.00 68 1017.8
20260504234944 20 84 0.0 1.6 0.00 0.00 0.00 71 1017.7
20260504234441 21 102 3.2 4.8 0.00 0.00 0.00 69 1017.6
20260504233938 21 91 3.2 6.4 0.00 0.00 0.00 69 1017.6
20260504233433 21 65 8.0 11.3 0.00 0.00 0.00 67 1017.5
20260504232931 21 87 4.8 4.8 0.00 0.00 0.00 69 1017.4
20260504232428 21 63 3.2 6.4 0.00 0.00 0.00 69 1017.3
20260504231925 21 89 3.2 9.7 0.00 0.00 0.00 68 1017.1
20260504231421 21 62 9.7 14.5 0.00 0.00 0.00 68 1017.2
20260504230917 21 59 3.2 4.8 0.00 0.00 0.00 68 1017.2
20260504230415 21 76 3.2 6.4 0.00 0.00 0.00 69 1017.1
20260504225913 21 84 0.0 1.6 0.00 0.00 0.00 69 1017.2
20260504225410 21 83 3.2 4.8 0.00 0.00 0.00 70 1017.1
20260504224907 21 76 3.2 6.4 0.00 0.00 0.00 70 1017.0
20260504224403 21 68 4.8 6.4 0.00 0.00 0.00 68 1017.0
20260504223901 21 65 6.4 9.7 0.00 0.00 0.00 68 1016.9
20260504223356 21 76 1.6 3.2 0.00 0.00 0.00 68 1016.9
20260504222852 21 53 3.2 4.8 0.00 0.00 0.00 68 1016.9
20260504222349 21 88 3.2 4.8 0.00 0.00 0.00 71 1016.9
20260504221848 22 30 3.2 9.7 0.00 0.00 0.00 71 1017.0
20260504221344 22 46 3.2 4.8 0.00 0.00 0.00 70 1016.9
20260504220842 22 65 6.4 9.7 0.00 0.00 0.00 67 1016.9
20260504220338 22 58 3.2 9.7 0.00 0.00 0.00 65 1016.9
20260504215835 22 62 6.4 11.3 0.00 0.00 0.00 63 1016.9
20260504215332 22 42 6.4 9.7 0.00 0.00 0.00 63 1017.0
20260504214828 22 81 3.2 6.4 0.00 0.00 0.00 67 1016.8
20260504214325 22 83 6.4 9.7 0.00 0.00 0.00 64 1017.1
20260504213821 22 68 1.6 3.2 0.00 0.00 0.00 64 1017.1
20260504213317 22 38 6.4 11.3 0.00 0.00 0.00 64 1017.1
20260504212815 22 56 4.8 4.8 0.00 0.00 0.00 63 1017.2
20260504212311 22 97 1.6 4.8 0.00 0.00 0.00 67 1017.1
20260504211809 22 54 3.2 4.8 0.00 0.00 0.00 64 1017.1
20260504211304 22 45 6.4 6.4 0.00 0.00 0.00 61 1017.1
20260504210802 22 92 1.6 3.2 0.00 0.00 0.00 60 1017.0
20260504210259 23 89 0.0 1.6 0.00 0.00 0.00 60 1017.0
20260504205756 23 93 1.6 3.2 0.00 0.00 0.00 56 1017.0
20260504205254 24 77 3.2 3.2 0.00 0.00 0.00 58 1017.0
20260504204752 24 111 1.6 3.2 0.00 0.00 0.00 53 1017.3
20260504204250 23 73 1.6 1.6 0.00 0.00 0.00 57 1017.3
20260504203749 23 114 4.8 6.4 0.00 0.00 0.00 54 1017.2
20260504203246 23 99 3.2 3.2 0.00 0.00 0.00 56 1017.2
20260504202741 23 84 1.6 3.2 0.00 0.00 0.00 57 1017.3
20260504202238 23 71 1.6 3.2 0.00 0.00 0.00 57 1017.3
20260504201736 23 95 3.2 3.2 0.00 0.00 0.00 57 1017.4
20260504201233 23 70 0.0 1.6 0.00 0.00 0.00 57 1017.2
20260504200731 25 82 4.8 6.4 0.00 0.00 0.00 49 1017.5
20260504200226 26 80 1.6 1.6 0.00 0.00 0.00 51 1017.4
20260504195723 26 124 1.6 3.2 0.00 0.00 0.00 49 1017.3
20260504195219 25 86 1.6 1.6 0.00 0.00 0.00 52 1017.2
20260504194716 25 100 1.6 3.2 0.00 0.00 0.00 43 1017.3
20260504194212 25 118 1.6 1.6 0.00 0.00 0.00 49 1017.3
20260504193709 25 102 1.6 3.2 0.00 0.00 0.00 50 1017.5
20260504193206 25 93 1.6 1.6 0.00 0.00 0.00 55 1017.5
20260504192704 25 81 0.0 1.6 0.00 0.00 0.00 49 1017.5
20260504192202 25 71 1.6 1.6 0.00 0.00 0.00 52 1017.6
20260504191701 24 89 1.6 3.2 0.00 0.00 0.00 52 1018.0
20260504191156 23 80 3.2 4.8 0.00 0.00 0.00 54 1017.7
20260504190652 23 103 4.8 4.8 0.00 0.00 0.00 54 1017.9
20260504190149 23 83 4.8 4.8 0.00 0.00 0.00 55 1017.9
20260504185645 23 95 1.6 4.8 0.00 0.00 0.00 55 1018.1
20260504185141 23 97 3.2 4.8 0.00 0.00 0.00 54 1018.1
20260504184638 23 94 3.2 3.2 0.00 0.00 0.00 55 1018.2
20260504184132 24 82 1.6 3.2 0.00 0.00 0.00 54 1018.2
20260504183630 23 83 3.2 3.2 0.00 0.00 0.00 54 1018.4
20260504183127 23 100 0.0 1.6 0.00 0.00 0.00 58 1018.4
20260504182625 23 41 1.6 3.2 0.00 0.00 0.00 58 1018.5
20260504182122 23 104 3.2 4.8 0.00 0.00 0.00 57 1018.7
20260504181620 22 79 0.0 1.6 0.00 0.00 0.00 62 1018.8
20260504181117 22 77 1.6 3.2 0.00 0.00 0.00 60 1018.7
20260504180616 23 103 3.2 3.2 0.00 0.00 0.00 55 1018.8
20260504180115 22 95 3.2 4.8 0.00 0.00 0.00 58 1018.7
20260504175611 22 79 1.6 3.2 0.00 0.00 0.00 59 1018.9
20260504175108 22 77 1.6 3.2 0.00 0.00 0.00 57 1018.9
20260504174606 22 59 3.2 4.8 0.00 0.00 0.00 58 1019.0
20260504174102 22 66 0.0 1.6 0.00 0.00 0.00 57 1019.0
20260504173559 22 70 1.6 1.6 0.00 0.00 0.00 58 1019.0
20260504173057 22 63 3.2 4.8 0.00 0.00 0.00 57 1019.3
20260504172553 22 78 1.6 1.6 0.00 0.00 0.00 63 1019.3
20260504172050 22 61 0.0 1.6 0.00 0.00 0.00 59 1019.3
20260504171546 22 69 0.0 0.0 0.00 0.00 0.00 59 1019.4
20260504171044 22 66 0.0 1.6 0.00 0.00 0.00 57 1019.4
20260504170539 22 100 0.0 1.6 0.00 0.00 0.00 58 1019.5
20260504150923 22 57 0.0 1.6 0.00 0.00 0.00 55 1020.5
20260504150420 21 70 1.6 1.6 0.00 0.00 0.00 57 1020.6